User: anonymous   Login
Location: Fremont
(37.5480°N, 121.9880°W)
Time: 02:47:06
(UTC-07:00)
Language:

Cosmos 1844 Rocket - Orbit

View from above orbital plane
View from above orbital plane
View from above satellite
View from above satellite

Ground track
Ground track

The orbit data is extracted from the following two-line orbital elements,

1 17974U 87041B   17114.90305807 -.00000140 +00000-0 -45578-4 0  9994
2 17974 071.0104 022.1079 0011901 119.5223 290.2753 14.17222861548930
Epoch (UTC): 24 April 2017 21:40:24
Eccentricity: 0.0011901
inclination: 71.0104°
perigee height: 826 km
apogee height: 843 km
right ascension of ascending node: 22.1079°
argument of perigee: 119.5223°
revolutions per day: 14.17222861
mean anomaly at epoch: 290.2753°
orbit number at epoch: 54893

The dashed part of the orbit path shows where the satellite is in the earth's shadow,  

DLR